Regional Weather Roundup
Issued by NWS

Home | Current Version | Previous Version | Text Only | Print | Product List | Glossary On
Versions: 1 2 3 4 5 6 7 8 9 10 11 12 13 14 15 16 17 18 19 20 21 22 23 24 25 26 27 28 29 30 31 32 33 34 35 36 37 38 39 40 41 42 43 44 45 46 47 48 49 50
000
ASUS43 KLMK 302110
RWRKY
KENTUCKY REGIONAL WEATHER ROUNDUP
NATIONAL WEATHER SERVICE LOUISVILLE KY
500 PM EDT MON MAY 30 2016

NOTE "FAIR" INDICATES FEW OR NO CLOUDS BELOW 12,000 FEET
WITH NO SIGNIFICANT WEATHER AND/OR OBSTRUCTIONS TO VISIBILITY.

KYZ001>023-026-027-061>063-070>075-302200-
WESTERN AND SOUTH CENTRAL KENTUCKY

CITY           SKY/WX    TMP DP  RH WIND       PRES   REMARKS
PADUCAH        SUNNY     87  59  38 CALM      29.99F
HENDERSON      SUNNY     86  57  37 E5        29.98F
OWENSBORO      SUNNY     87  57  35 NE6       30.00F
HOPKINSVILLE   SUNNY     85  60  42 NE7       30.00F
BOWLING GREEN  MOSUNNY   88  58  36 NE10      30.00F
GLASGOW        PTSUNNY   87  55  33 CALM      30.00F
$$

KYZ024-025-028>034-038-045-046-053-302200-
NORTH CENTRAL KENTUCKY

CITY           SKY/WX    TMP DP  RH WIND       PRES   REMARKS
LOUISVILLE/SDF MOSUNNY   87  56  34 NE6       29.99F
LOUISVILLE/LOU MOSUNNY   88  55  32 N9        30.00F
FORT KNOX      MOSUNNY   84  61  45 NW6       29.99F
$$

KYZ035>037-039>044-047>052-055>060-089>105-302200-
NORTHEAST KENTUCKY

CITY           SKY/WX    TMP DP  RH WIND       PRES   REMARKS
LEXINGTON      MOSUNNY   85  59  41 N9        30.01F
COVINGTON      MOSUNNY   85  54  34 NW7       30.00F
FRANKFORT      SUNNY     87  54  32 N6        30.00F
$$

KYZ054-064>069-076>088-106>120-302200-
SOUTHEAST KENTUCKY

CITY           SKY/WX    TMP DP  RH WIND       PRES   REMARKS
JACKSON        MOSUNNY   83  62  49 CALM      30.02F
LONDON         MOSUNNY   82  59  45 NE8       30.01F
SOMERSET       MOSUNNY   82  55  39 NE8       30.01F
MIDDLESBORO    SUNNY     83  64  52 N6        30.00S
MONTICELLO     CLEAR     85  60  42 N18       30.02F
$$





USA.gov is the U.S. government's official web portal to all federal, state and local government web resources and services.